User: anonymous   Login
Location: Brainerd
(46.3580°N, 94.2010°W)
Time: 03:56:21
(UTC-05:00)
Language:

CZ-4C R/B - Orbit

View from above orbital plane
View from above orbital plane
View from above satellite
View from above satellite

Ground track
Ground track

The orbit data is extracted from the following two-line orbital elements,

1 32290U 07055B   18111.90796989 +.00002998 +00000-0 +81470-4 0  9994
2 32290 097.5489 230.5350 0066048 110.2574 250.5786 15.36203955579117
Epoch (UTC): 21 April 2018 21:47:28
Eccentricity: 0.0066048
inclination: 97.5489°
perigee height: 412 km
apogee height: 502 km
right ascension of ascending node: 230.5350°
argument of perigee: 110.2574°
revolutions per day: 15.36203955
mean anomaly at epoch: 250.5786°
orbit number at epoch: 57911

The dashed part of the orbit path shows where the satellite is in the earth's shadow,  

DLR